Regional Weather Roundup
Issued by NWS Northern Indiana

Home | Current Version | Previous Version | Text Only | Print | Product List | Glossary Off
Versions: 1 2 3 4 5 6 7 8 9 10 11 12 13 14 15 16 17 18 19 20 21 22 23 24 25 26 27 28 29 30 31 32 33 34 35 36 37 38 39 40 41 42 43 44 45 46 47 48 49 50

000
ASUS43 KIWX 070300
RWRIWX

KIWX WEATHER ROUNDUP
NATIONAL WEATHER SERVICE NORTHERN INDIANA
1100 PM EDT MON JUL 06 2015

NOTE: "FAIR" INDICATES FEW OR NO CLOUDS BELOW 12,000 FEET WITH NO
SIGNIFICANT WEATHER AND/OR OBSTRUCTIONS TO VISIBILITY.

* THESE STATIONS ARE NOT UNDER NWS QUALITY CONTROL. THEY ALSO MAY NOT
  REPORT WEATHER SUCH AS PRECIPITATION OR FOG.

INZ001>027-070400-
NORTHERN INDIANA

CITY           SKY/WX    TMP DP  RH WIND       PRES   REMARKS
GARY*          MOCLDY   N/A N/A N/A S6        29.88R
SOUTH BEND     CLOUDY    78  68  71 S10       29.91R
GOSHEN         CLOUDY    78  68  71 S9        29.92R
MONTICELLO*    CLOUDY    78  73  84 S6        29.93R
ANGOLA*          N/A     75  70  83 S5        29.94R
FORT WAYNE     CLOUDY    77  67  71 S14G20    29.96R
PERU/GRISSOM   CLOUDY    77  70  79 S9        29.94R

$$
INZ028>050-070400-
CENTRAL INDIANA

CITY           SKY/WX    TMP DP  RH WIND       PRES   REMARKS
LAFAYETTE      CLOUDY    77  71  82 S6        29.93R
KOKOMO*        CLOUDY    79  68  69 SW8       29.95S
MUNCIE*        CLOUDY    78  68  71 S7        29.99R
INDIANAPOLIS   CLOUDY    78  69  73 S12       29.96S

$$
MIZ043>046-050>051-056>058-064>065-071>073-077>080-070400-
SOUTHWEST LOWER MICHIGAN

CITY           SKY/WX    TMP DP  RH WIND       PRES   REMARKS
BATTLE CREEK   CLOUDY    78  65  63 S15       29.90S
BENTON HARBOR  CLOUDY    79  68  69 S9        29.87R
COLDWATER*     CLOUDY    75  64  68 S6        29.93R
HILLSDALE*     CLOUDY    76  66  71 S7        29.95S
HOLLAND        CLOUDY    79  68  69 S8        29.86R
GRAND RAPIDS   CLOUDY    78  66  66 S9        29.87R
KALAMAZOO      CLOUDY    79  65  62 S13       29.89S
STURGIS*       CLOUDY    75  66  73 S8        29.92S
THREE RIVERS*  FAIR      76  66  70 S7        29.91S

$$
OHZ001>008-015>018-024>025-070400-
NORTHWEST OHIO

CITY           SKY/WX    TMP DP  RH WIND       PRES   REMARKS
DEFIANCE       CLOUDY    77  66  68 S8        29.95R
FINDLAY        PTCLDY    71  65  81 S9        29.96R
TOLEDO EXPRESS MOCLDY    73  65  75 S3        29.95R
TOLEDO METCALF PTCLDY    74  63  68 S8        29.95R
LIMA           MOCLDY    71  65  81 S6        29.98R

$$
AND FOR LAKE MICHIGAN COASTAL AND OPEN LAKE BUOY OBSERVATIONS

STATION/POSITION TEMP    WIND        PRES    VSBY  WAVE
                 AIR SEA DIR/SP/G                  HT/PER
                 (F)     (DEG/KT/KT) (MB)    (MI)  (FT/S)
CALUMET HARBOR    77     180/  8/ 10   N/A
MICHIGAN CITY     74     160/ 12/ 17   N/A
BURNS HARBOR      74     190/ 11/ 15 1011.9R
SAINT JOSEPH      80     180/  9/ 13 1011.9S
4 MI NW BRIDGMAN  73 67  230/ 14/ 16   N/A           2/ 2
MICHIGAN CITY     72 68  190/  8/ 10   N/A           1/ 2

$$
&&



USA.gov is the U.S. government's official web portal to all federal, state and local government web resources and services.